[[{"header":{"parameterUnit":"m.s-1","parameterCategory":1,"la1":30.2991,"la2":30.254,"lo1":-89.0895,"lo2":-89.0444,"dy":0.0017,"dx":0.0017,"nx":28,"ny":28,"refTime":"2025-12-27T09:00:00:Z","depth":0,"parameterNumber":2,"parameterNumberName":"U-component_of_WINDS"},"data":[0,0,0,0,0,0,0,0,0,0,0,0,0,0,0,0,0,0,0,0,0,0,0,0,0,0,0,0,0,0,0,0,0,0,0,0,0,0,0,0,0,0,0,0,0,0,0,0,0,0,0,0,0,0,0,0,0,0,-0.926,-0.9258,0,-0.9138,-0.9137,-0.9135,-0.9074,-0.9074,-0.9074,-0.9074,-0.8946,-0.8943,-0.894,0,0,0,0,0,0,0,0,0,0,0,0,0,-0.9437,-0.9434,-0.926,-0.9258,-0.9257,-0.9138,-0.9137,-0.9135,-0.9074,-0.9074,-0.9074,-0.9074,-0.8947,-0.8943,-0.8939,0,0,0,0,0,0,0,0,0,0,0,0,0,-0.9342,-0.9433,-0.926,-0.9212,-0.9207,-0.9139,-0.9136,-0.9134,-0.9074,-0.9074,-0.9074,-0.9074,-0.8949,-0.8944,-0.8939,-0.8908,0,0,-0.8923,-0.8921,0,0,0,0,0,0,0,0,-0.9347,-0.9335,-0.9221,-0.9215,-0.9209,-0.9121,-0.9152,-0.9058,-0.9074,-0.9124,-0.9074,-0.9074,-0.9004,-0.8995,-0.8972,-0.8902,-0.8896,-0.8923,-0.892,-0.8917,-0.8916,0,0,0,0,0,0,0,-0.9354,-0.934,-0.9211,-0.9219,-0.9212,-0.9196,-0.9182,-0.9134,-0.9066,-0.912,-0.9115,-0.9102,-0.9001,-0.8977,-0.8968,-0.8894,-0.8923,-0.8918,-0.8915,-0.8913,-0.8792,-0.8792,0,0,0,0,0,0,-0.9369,-0.9346,-0.9215,-0.9208,-0.928,-0.9193,-0.9178,-0.9149,-0.9066,-0.9054,-0.9102,-0.91,-0.8985,-0.8974,-0.8964,-0.8921,-0.8917,-0.8913,-0.891,-0.8792,-0.8792,-0.8792,0,0,0,0,0,0,-0.9373,-0.9358,-0.922,-0.9276,-0.9257,-0.919,-0.9159,-0.9147,-0.9123,-0.9053,-0.904,-0.909,-0.8985,-0.8971,-0.8922,-0.8916,-0.891,-0.8906,-0.8793,-0.8792,-0.8792,-0.8837,0,0,0,0,0,0,-0.9378,-0.9359,-0.9348,-0.9276,-0.9254,-0.9182,-0.9158,-0.9145,-0.9115,-0.911,-0.9038,-0.9026,-0.8984,-0.893,-0.8917,-0.8909,-0.8902,-0.8793,-0.8792,-0.8792,-0.8836,-0.8838,-0.8841,0,0,0,0,0,-0.9385,-0.9364,-0.9347,-0.9332,-0.9238,-0.9182,-0.9169,-0.9122,-0.9114,-0.9101,-0.9056,-0.9028,-0.8919,-0.8926,-0.891,-0.8901,-0.8793,-0.8793,-0.8792,-0.8835,-0.8838,-0.8841,0,0,0,0,0,0,-0.9436,-0.9354,-0.9334,-0.9291,-0.9244,-0.9172,-0.9154,-0.9127,-0.9081,-0.9078,-0.9021,-0.9005,-0.8962,-0.8926,-0.8935,-0.8866,-0.8853,-0.885,-0.8891,-0.8893,-0.8895,-0.8904,-0.8898,0,0,0,0,0,-0.9443,-0.9404,-0.9335,-0.9303,-0.928,-0.9222,-0.9195,-0.9163,-0.9112,-0.9091,-0.9043,-0.8993,-0.8947,-0.8918,-0.8872,-0.8831,-0.8814,-0.8816,-0.8819,-0.8821,-0.8819,-0.8793,-0.8793,-0.8791,-0.8791,-0.8791,0,0,-0.9455,-0.9406,-0.9385,-0.9312,-0.9272,-0.9233,-0.9205,-0.9165,-0.9135,-0.9085,-0.9036,-0.8999,-0.8939,-0.8894,-0.8872,-0.8863,-0.8816,-0.8821,-0.8823,-0.8819,-0.8793,-0.8793,-0.8793,-0.8791,-0.8791,-0.8791,0,0,-0.9458,-0.9417,-0.9386,-0.9347,-0.9287,-0.9248,-0.924,-0.9172,-0.9146,-0.9097,-0.9058,-0.9021,-0.8944,-0.8903,-0.8872,-0.8861,-0.8832,-0.8847,-0.8859,-0.8835,-0.8835,-0.8835,-0.883,-0.8829,-0.8845,-0.8845,-0.8845,0,-0.948,-0.9421,-0.9373,-0.9335,-0.9304,-0.9258,-0.9225,-0.9189,-0.9117,-0.9096,-0.9088,-0.899,-0.8947,-0.8891,-0.8889,-0.8866,-0.8854,-0.8855,-0.884,-0.8839,-0.8838,-0.8832,-0.8831,-0.8847,-0.8847,-0.8847,-0.8847,0,-0.9451,-0.9411,-0.9393,-0.9325,-0.9292,-0.9257,-0.9203,-0.9175,-0.9146,-0.9108,-0.9058,-0.9004,-0.8947,-0.8932,-0.8902,-0.8871,-0.8868,-0.8851,-0.8836,-0.8841,-0.8835,-0.8833,-0.885,-0.885,-0.8849,-0.8848,0,0,-0.9482,-0.939,-0.9383,-0.9352,-0.9283,-0.925,-0.9213,-0.9158,-0.9135,-0.9087,-0.9053,-0.8989,-0.8973,-0.8938,-0.8904,-0.8883,-0.8876,-0.8868,-0.8865,-0.887,-0.8838,-0.8851,-0.8849,-0.8858,-0.8857,-0.8857,-0.8843,0,-0.9474,-0.9406,-0.9362,-0.9311,-0.9273,-0.9229,-0.9196,-0.915,-0.9113,-0.9074,-0.9033,-0.8989,-0.8971,-0.8949,-0.8927,-0.8882,-0.8869,-0.8882,-0.8825,-0.8823,-0.884,-0.8846,-0.8859,-0.8849,-0.884,-0.8839,-0.8839,0,-0.9456,-0.941,-0.9356,-0.9291,-0.9273,-0.9245,-0.9191,-0.9155,-0.9101,-0.9075,-0.9037,-0.9003,-0.8961,-0.8951,-0.8892,-0.8902,-0.8876,-0.885,-0.8849,-0.884,-0.8831,-0.8837,-0.8844,-0.8842,-0.8835,-0.8835,-0.8836,0,-0.9483,-0.9408,-0.9365,-0.934,-0.9264,-0.9245,-0.9212,-0.9158,-0.9128,-0.908,-0.906,-0.9008,-0.8979,-0.8939,-0.8891,-0.8889,-0.8836,-0.8823,-0.8813,-0.8814,-0.8803,-0.8804,-0.8805,-0.8788,-0.8788,-0.8788,-0.8788,0,-0.9478,-0.9446,-0.9376,-0.935,-0.9313,-0.9263,-0.9227,-0.919,-0.9143,-0.9108,-0.9067,-0.9035,-0.8975,-0.8935,-0.8897,-0.8853,-0.884,-0.8818,-0.8808,-0.8821,-0.8824,-0.8802,-0.8801,-0.8788,-0.8788,-0.8788,-0.8788,0,-0.9501,-0.9453,-0.9404,-0.9336,-0.9319,-0.9294,-0.9235,-0.9208,-0.917,-0.9126,-0.9113,-0.9052,-0.9003,-0.8952,-0.8885,-0.886,-0.8817,-0.8804,-0.8836,-0.883,-0.8823,-0.8824,-0.8809,-0.8804,-0.8792,-0.8792,-0.8792,0,-0.9501,-0.9476,-0.9406,-0.938,-0.9348,-0.9307,-0.9277,-0.9226,-0.9195,-0.9133,-0.9112,-0.9061,-0.9017,-0.8941,-0.889,-0.8839,-0.8823,-0.8822,-0.8815,-0.8829,-0.8822,-0.8824,-0.8821,-0.8823,-0.8824,-0.8824,-0.8824,0,-0.9505,-0.9483,-0.9441,-0.9391,-0.9355,-0.9313,-0.9269,-0.925,-0.919,-0.9158,-0.9108,-0.9074,-0.9007,-0.8956,-0.8899,-0.8863,-0.8833,-0.8827,-0.8822,-0.8834,-0.8853,-0.8842,-0.8841,-0.8827,-0.8827,-0.8827,-0.8827,-0.8827,-0.9516,-0.9491,-0.9438,-0.9393,-0.9354,-0.9314,-0.9285,-0.9244,-0.9202,-0.9144,-0.9116,-0.9066,-0.9013,-0.8933,-0.8899,-0.8858,-0.8849,-0.8842,-0.884,-0.8839,-0.8842,-0.8861,-0.8847,-0.8847,-0.8847,-0.8847,-0.8847,0,-0.9517,-0.9481,-0.944,-0.938,-0.9344,-0.9321,-0.9271,-0.9242,-0.9199,-0.9152,-0.911,-0.9053,-0.9003,-0.8949,-0.8896,-0.8874,-0.8859,-0.8862,-0.8862,-0.8854,-0.8853,-0.8862,-0.8875,-0.8875,-0.8875,-0.8875,-0.8875,-0.8875,-0.9514,-0.9471,-0.9443,-0.938,-0.9344,-0.9295,-0.9269,-0.9231,-0.9194,-0.9132,-0.9091,-0.9057,-0.9006,-0.8949,-0.8902,-0.8888,-0.887,-0.8876,-0.8857,-0.8857,-0.8854,-0.8852,-0.8861,-0.8873,-0.8873,-0.8862,-0.8862,-0.8862]},{"header":{"parameterUnit":"m.s-1","parameterCategory":1,"la1":30.2991,"la2":30.254,"lo1":-89.0895,"lo2":-89.0444,"dy":0.0017,"dx":0.0017,"nx":28,"ny":28,"refTime":"2025-12-27T09:00:00:Z","depth":0,"parameterNumber":3,"parameterNumberName":"V-component_of_WINDS"},"data":[0,0,0,0,0,0,0,0,0,0,0,0,0,0,0,0,0,0,0,0,0,0,0,0,0,0,0,0,0,0,0,0,0,0,0,0,0,0,0,0,0,0,0,0,0,0,0,0,0,0,0,0,0,0,0,0,0,0,2.6532,2.6532,0,2.6572,2.6572,2.6572,2.6545,2.6544,2.6542,2.6541,2.6581,2.6583,2.6585,0,0,0,0,0,0,0,0,0,0,0,0,0,2.643,2.6432,2.6532,2.6532,2.6533,2.6571,2.6572,2.6573,2.6545,2.6544,2.6542,2.6541,2.658,2.6582,2.6585,0,0,0,0,0,0,0,0,0,0,0,0,0,2.6472,2.6433,2.6532,2.6524,2.6523,2.6571,2.6572,2.6573,2.6545,2.6544,2.6542,2.654,2.6579,2.6582,2.6585,2.6643,0,0,2.6596,2.6597,0,0,0,0,0,0,0,0,2.647,2.6476,2.6524,2.6524,2.6524,2.6551,2.6551,2.6596,2.6546,2.6537,2.6541,2.6539,2.6572,2.6576,2.6587,2.6645,2.6646,2.6596,2.6598,2.6599,2.66,0,0,0,0,0,0,0,2.6467,2.6474,2.6547,2.6525,2.6525,2.6518,2.6522,2.6559,2.6564,2.6538,2.6536,2.6541,2.6572,2.6584,2.6588,2.6647,2.6596,2.6599,2.6601,2.6602,2.6754,2.6756,0,0,0,0,0,0,2.6465,2.6472,2.6546,2.6549,2.6492,2.6521,2.6525,2.6544,2.6564,2.6565,2.6542,2.6539,2.658,2.6584,2.6589,2.6659,2.6599,2.6602,2.6604,2.6752,2.6755,2.6757,0,0,0,0,0,0,2.6463,2.6472,2.6544,2.651,2.6518,2.6525,2.6546,2.6546,2.6559,2.6568,2.6568,2.6555,2.6578,2.6585,2.663,2.666,2.6604,2.6607,2.675,2.6753,2.6756,2.6799,0,0,0,0,0,0,2.646,2.6471,2.6494,2.6511,2.652,2.6585,2.6548,2.6548,2.6565,2.6561,2.6579,2.658,2.6577,2.6625,2.6633,2.6664,2.6609,2.6747,2.6751,2.6755,2.6795,2.6803,2.681,0,0,0,0,0,2.6457,2.6504,2.6495,2.6504,2.6549,2.6587,2.6593,2.6589,2.6567,2.659,2.6595,2.658,2.6655,2.663,2.6639,2.6671,2.6745,2.675,2.6755,2.6791,2.6801,2.681,0,0,0,0,0,0,2.649,2.6506,2.6496,2.655,2.6568,2.6582,2.6611,2.6599,2.6623,2.6618,2.6612,2.6616,2.6664,2.6671,2.6643,2.6728,2.6697,2.6703,2.6722,2.6731,2.6739,2.6737,2.6612,0,0,0,0,0,2.6504,2.6534,2.6546,2.6592,2.6601,2.6605,2.6621,2.6617,2.6634,2.6641,2.665,2.6667,2.6694,2.6713,2.6739,2.6795,2.6799,2.6821,2.6828,2.6835,2.6841,2.6872,2.6882,2.6772,2.6772,2.6772,0,0,2.6532,2.6544,2.6564,2.6599,2.6612,2.6644,2.6611,2.6645,2.6668,2.6646,2.669,2.6697,2.6715,2.6767,2.679,2.6775,2.6872,2.6841,2.6845,2.6849,2.6878,2.6888,2.6898,2.6775,2.6775,2.6774,0,0,2.6601,2.6612,2.6653,2.6667,2.6687,2.6688,2.6698,2.6715,2.6719,2.6763,2.6747,2.6773,2.6821,2.6835,2.6849,2.6922,2.6909,2.693,2.6971,2.7001,2.701,2.7018,2.7045,2.7055,2.6936,2.6936,2.6936,0,2.6634,2.6681,2.6675,2.6711,2.6728,2.6709,2.675,2.6763,2.679,2.6802,2.6784,2.6843,2.6854,2.6909,2.6927,2.6938,2.6949,2.6929,2.7009,2.7017,2.7024,2.705,2.706,2.6939,2.6938,2.6938,2.6938,0,2.6721,2.6754,2.6784,2.6812,2.6831,2.6869,2.6869,2.6889,2.6883,2.6886,2.6931,2.6943,2.6972,2.6984,2.6978,2.7038,2.7028,2.701,2.6979,2.7037,2.7062,2.7071,2.6943,2.6942,2.6941,2.694,0,0,2.6813,2.6837,2.6848,2.6861,2.6881,2.6907,2.6943,2.6972,2.699,2.7008,2.704,2.708,2.7063,2.7079,2.7073,2.71,2.7159,2.7078,2.7079,2.7094,2.7227,2.7243,2.7254,2.7149,2.7151,2.7153,2.7226,0,2.6884,2.695,2.6946,2.7008,2.7038,2.702,2.7053,2.7069,2.7072,2.7098,2.7102,2.7132,2.7106,2.7116,2.7141,2.7146,2.7186,2.7141,2.7179,2.718,2.7177,2.7267,2.7283,2.7352,2.7236,2.7237,2.7238,0,2.6976,2.6999,2.7065,2.7081,2.7093,2.7123,2.7149,2.7173,2.7191,2.7192,2.7209,2.7199,2.7236,2.7203,2.7254,2.7224,2.7239,2.7243,2.7246,2.7251,2.7214,2.7276,2.7374,2.7385,2.7253,2.7252,2.7251,0,2.7039,2.7086,2.7131,2.7142,2.7162,2.7183,2.7192,2.7208,2.7225,2.7247,2.7258,2.7284,2.7298,2.7318,2.7316,2.7291,2.7368,2.7334,2.7371,2.7371,2.7389,2.7388,2.7493,2.7396,2.7396,2.7395,2.7395,0,2.712,2.7161,2.716,2.7188,2.7234,2.7228,2.7272,2.7279,2.7293,2.7321,2.7306,2.7334,2.7328,2.7355,2.7352,2.7396,2.7402,2.7404,2.7403,2.7407,2.7407,2.7418,2.7414,2.7398,2.7398,2.7397,2.7397,0,2.7199,2.72,2.7248,2.7263,2.7267,2.73,2.7312,2.7339,2.7341,2.7377,2.7386,2.7389,2.742,2.7419,2.7453,2.7452,2.7506,2.7499,2.7501,2.75,2.7537,2.7534,2.7654,2.767,2.7561,2.7562,2.7562,0,2.7251,2.7283,2.7301,2.7319,2.733,2.736,2.7378,2.7372,2.7391,2.7413,2.7437,2.7467,2.749,2.754,2.7546,2.7572,2.7567,2.7607,2.7571,2.7573,2.7569,2.7568,2.7572,2.7614,2.7616,2.7617,2.7617,0,2.7345,2.7344,2.7371,2.7398,2.742,2.744,2.7459,2.7475,2.7472,2.7494,2.7526,2.7544,2.758,2.761,2.7635,2.7643,2.7631,2.7628,2.7638,2.7643,2.7644,2.7646,2.7522,2.7626,2.7625,2.7625,2.7624,2.7624,2.7414,2.7441,2.7459,2.7489,2.7502,2.752,2.7546,2.7552,2.7578,2.7608,2.7602,2.7638,2.7654,2.7687,2.7698,2.7725,2.7711,2.7725,2.7729,2.7734,2.7739,2.7638,2.773,2.7729,2.7729,2.7729,2.7729,0,2.7509,2.7519,2.7547,2.7574,2.7598,2.7583,2.7603,2.7624,2.7656,2.7672,2.7695,2.7732,2.7761,2.7768,2.7795,2.7816,2.7811,2.7824,2.7823,2.7826,2.7749,2.7738,2.7828,2.7828,2.7828,2.7828,2.7828,2.7827,2.7561,2.7607,2.7608,2.766,2.7669,2.7705,2.7718,2.7734,2.7747,2.7789,2.7813,2.7818,2.783,2.7859,2.7884,2.7885,2.7897,2.7913,2.7912,2.7841,2.7831,2.7821,2.7812,2.7915,2.7915,2.7986,2.7987,2.7988]}]]